Regional Weather Roundup
Issued by NWS

Home | Current Version | Previous Version | Graphics & Text | Print | Product List | Glossary On
Versions: 1 2 3 4 5 6 7 8 9 10 11 12 13 14 15 16 17 18 19 20 21 22 23 24 25 26 27 28 29 30 31 32 33 34 35 36 37 38 39 40 41 42 43 44 45 46 47 48 49 50
000
ASUS43 KLMK 230910
RWRKY
KENTUCKY REGIONAL WEATHER ROUNDUP
NATIONAL WEATHER SERVICE LOUISVILLE KY
500 AM EDT SAT AUG 23 2014

NOTE "FAIR" INDICATES FEW OR NO CLOUDS BELOW 12,000 FEET
WITH NO SIGNIFICANT WEATHER AND/OR OBSTRUCTIONS TO VISIBILITY.

KYZ001>023-026-027-061>063-070>075-231000-
WESTERN AND SOUTH CENTRAL KENTUCKY

CITY           SKY/WX    TMP DP  RH WIND       PRES   REMARKS
PADUCAH        CLEAR     80  75  84 SW5       29.95S
HENDERSON      MOCLDY    77  72  83 S5        29.96S
OWENSBORO      CLOUDY    74  74 100 SW6       29.97F
HOPKINSVILLE   MOCLDY    77  77 100 N15       30.02R
BOWLING GREEN  CLOUDY    76  73  91 CALM      30.00S
GLASGOW        CLOUDY    75  75 100 W3        29.99S
$$

KYZ024-025-028>034-038-045-046-053-231000-
NORTH CENTRAL KENTUCKY

CITY           SKY/WX    TMP DP  RH WIND       PRES   REMARKS
LOUISVILLE/SDF CLOUDY    75  72  90 CALM      29.98S
LOUISVILLE/LOU MOCLDY    73  72  96 CALM      29.99R FOG
FORT KNOX      CLOUDY    71  71 100 W3        29.98S
$$

KYZ035>037-039>044-047>052-055>060-089>105-231000-
NORTHEAST KENTUCKY

CITY           SKY/WX    TMP DP  RH WIND       PRES   REMARKS
LEXINGTON      CLEAR     71  68  90 CALM      30.00F
COVINGTON      FOG       72  70  94 CALM      29.99S VSB 3/4
FRANKFORT      MOCLDY    69  68  96 CALM      29.99S FOG
$$

KYZ054-064>069-076>088-106>120-231000-
SOUTHEAST KENTUCKY

CITY           SKY/WX    TMP DP  RH WIND       PRES   REMARKS
JACKSON        FOG       70  68  93 CALM      30.02R VSB 3/4
LONDON         CLOUDY    76  72  87 W3        30.02S
SOMERSET       PTCLDY    72  72 100 CALM      30.02S FOG
MIDDLESBORO    MOCLDY    71  71  98 CALM      30.02R
MONTICELLO     MOSUNNY   73  72  97 CALM      30.02F FOG
$$




USA.gov is the U.S. government's official web portal to all federal, state and local government web resources and services.